| time (UTC) | temp F | wind direction | speed MPH | gust MPH | rain 1hr in | rain 24hr in | rain mn in | humidity % | barometer mb |
| 20260510151000 | 53 | 10 | 2.0 | 3.0 | 0.00 | 0.00 | 0.00 | 69 | 1016.1 |
| 20260510150000 | 53 | 346 | 1.0 | 3.0 | 0.00 | 0.00 | 0.00 | 69 | 1016.3 |
| 20260510144000 | 53 | 349 | 1.0 | 6.0 | 0.00 | 0.00 | 0.00 | 70 | 1016.4 |
| 20260510143441 | 54 | 351 | 1.0 | 6.0 | 0.00 | 0.00 | 0.00 | 70 | 1016.5 |
| 20260510142000 | 54 | 351 | 1.0 | 4.0 | 0.00 | 0.00 | 0.00 | 70 | 1016.6 |
| 20260510141000 | 54 | 14 | 2.0 | 5.0 | 0.00 | 0.00 | 0.00 | 69 | 1016.7 |
| 20260510140005 | 54 | 42 | 1.0 | 3.0 | 0.00 | 0.00 | 0.00 | 70 | 1016.6 |
| 20260510135442 | 54 | 23 | 1.0 | 4.0 | 0.00 | 0.00 | 0.00 | 71 | 1016.6 |
| 20260510134439 | 54 | 346 | 1.0 | 5.0 | 0.00 | 0.00 | 0.00 | 72 | 1016.8 |
| 20260510133000 | 54 | 11 | 1.0 | 3.0 | 0.00 | 0.00 | 0.00 | 71 | 1017.0 |
| 20260510132454 | 54 | 5 | 1.0 | 5.0 | 0.00 | 0.00 | 0.00 | 71 | 1016.9 |
| 20260510130958 | 54 | 340 | 2.0 | 6.0 | 0.00 | 0.00 | 0.00 | 71 | 1017.0 |
| 20260510125957 | 54 | 24 | 2.0 | 6.0 | 0.00 | 0.00 | 0.00 | 72 | 1017.1 |
| 20260510124956 | 54 | 21 | 2.0 | 5.0 | 0.00 | 0.00 | 0.00 | 71 | 1017.1 |
| 20260510123956 | 55 | 13 | 2.0 | 3.0 | 0.00 | 0.00 | 0.00 | 70 | 1017.1 |
| 20260510122953 | 55 | 33 | 2.0 | 5.0 | 0.00 | 0.00 | 0.00 | 70 | 1017.3 |
| 20260510122439 | 55 | 0 | 2.0 | 5.0 | 0.00 | 0.00 | 0.00 | 70 | 1017.3 |
| 20260510121436 | 55 | 0 | 2.0 | 5.0 | 0.00 | 0.00 | 0.00 | 70 | 1017.3 |
| 20260510120422 | 56 | 22 | 2.0 | 5.0 | 0.00 | 0.00 | 0.00 | 68 | 1017.2 |
| 20260510114943 | 56 | 68 | 2.0 | 5.0 | 0.00 | 0.00 | 0.00 | 68 | 1017.3 |
| 20260510114425 | 56 | 336 | 2.0 | 4.0 | 0.00 | 0.00 | 0.00 | 68 | 1017.4 |
| 20260510112942 | 56 | 20 | 2.0 | 5.0 | 0.00 | 0.00 | 0.00 | 67 | 1017.4 |
| 20260510111941 | 56 | 26 | 2.0 | 5.0 | 0.00 | 0.00 | 0.00 | 67 | 1017.6 |
| 20260510110940 | 56 | 23 | 2.0 | 5.0 | 0.00 | 0.00 | 0.00 | 68 | 1017.6 |
| 20260510105939 | 56 | 34 | 2.0 | 5.0 | 0.00 | 0.00 | 0.00 | 69 | 1017.7 |
| 20260510104939 | 56 | 24 | 2.0 | 5.0 | 0.00 | 0.00 | 0.00 | 70 | 1017.8 |
| 20260510103938 | 56 | 9 | 2.0 | 6.0 | 0.00 | 0.00 | 0.00 | 68 | 1017.8 |
| 20260510102937 | 55 | 23 | 2.0 | 6.0 | 0.00 | 0.00 | 0.00 | 67 | 1017.8 |
| 20260510101937 | 55 | 12 | 2.0 | 5.0 | 0.00 | 0.00 | 0.00 | 67 | 1017.9 |
| 20260510100938 | 55 | 11 | 2.0 | 6.0 | 0.00 | 0.00 | 0.00 | 70 | 1017.9 |
| 20260510095936 | 54 | 11 | 2.0 | 6.0 | 0.00 | 0.00 | 0.00 | 70 | 1017.9 |
| 20260510094935 | 54 | 5 | 2.0 | 5.0 | 0.00 | 0.00 | 0.00 | 71 | 1017.8 |
| 20260510093936 | 54 | 19 | 2.0 | 5.0 | 0.00 | 0.00 | 0.00 | 71 | 1017.8 |
| 20260510092936 | 55 | 5 | 1.0 | 5.0 | 0.00 | 0.00 | 0.00 | 71 | 1017.9 |
| 20260510091937 | 54 | 25 | 2.0 | 5.0 | 0.00 | 0.00 | 0.00 | 71 | 1018.1 |
| 20260510090935 | 53 | 15 | 2.0 | 5.0 | 0.00 | 0.00 | 0.00 | 73 | 1018.1 |
| 20260510085934 | 53 | 88 | 2.0 | 4.0 | 0.00 | 0.00 | 0.00 | 73 | 1018.1 |
| 20260510084934 | 53 | 355 | 2.0 | 5.0 | 0.00 | 0.00 | 0.00 | 75 | 1018.1 |
| 20260510083932 | 52 | 22 | 1.0 | 4.0 | 0.00 | 0.00 | 0.00 | 77 | 1018.2 |
| 20260510082935 | 51 | 14 | 1.0 | 5.0 | 0.00 | 0.00 | 0.00 | 78 | 1018.3 |
| 20260510081936 | 51 | 5 | 2.0 | 5.0 | 0.00 | 0.00 | 0.00 | 78 | 1018.3 |
| 20260510075927 | 50 | 17 | 1.0 | 4.0 | 0.00 | 0.00 | 0.00 | 80 | 1018.4 |
| 20260510074927 | 50 | 13 | 2.0 | 5.0 | 0.00 | 0.00 | 0.00 | 80 | 1018.2 |
| 20260510073927 | 50 | 5 | 2.0 | 5.0 | 0.00 | 0.00 | 0.00 | 80 | 1018.3 |
| 20260510072927 | 50 | 13 | 2.0 | 5.0 | 0.00 | 0.00 | 0.00 | 81 | 1018.4 |
| 20260510071927 | 49 | 9 | 2.0 | 5.0 | 0.00 | 0.00 | 0.00 | 81 | 1018.4 |
| 20260510070926 | 49 | 0 | 2.0 | 5.0 | 0.00 | 0.00 | 0.00 | 82 | 1018.2 |
| 20260510065927 | 49 | 19 | 2.0 | 5.0 | 0.00 | 0.00 | 0.00 | 82 | 1018.2 |
| 20260510065412 | 49 | 15 | 1.0 | 5.0 | 0.00 | 0.00 | 0.00 | 82 | 1018.3 |
| 20260510063928 | 49 | 344 | 2.0 | 5.0 | 0.00 | 0.00 | 0.00 | 82 | 1018.3 |
| 20260510062927 | 49 | 318 | 1.0 | 3.0 | 0.00 | 0.00 | 0.00 | 83 | 1018.2 |
| 20260510061927 | 49 | 26 | 1.0 | 3.0 | 0.00 | 0.00 | 0.00 | 84 | 1018.2 |
| 20260510060928 | 49 | 9 | 1.0 | 4.0 | 0.00 | 0.00 | 0.00 | 84 | 1018.2 |
| 20260510055927 | 49 | 347 | 1.0 | 5.0 | 0.00 | 0.00 | 0.00 | 84 | 1018.1 |
| 20260510054927 | 49 | 13 | 1.0 | 5.0 | 0.00 | 0.00 | 0.00 | 84 | 1018.1 |
| 20260510053926 | 49 | 15 | 0.0 | 2.0 | 0.00 | 0.00 | 0.00 | 84 | 1018.2 |
| 20260510053400 | 49 | 0 | 1.0 | 2.0 | 0.00 | 0.00 | 0.00 | 84 | 1018.2 |
| 20260510051925 | 49 | 43 | 1.0 | 3.0 | 0.00 | 0.00 | 0.00 | 84 | 1018.2 |
| 20260510050925 | 49 | 5 | 1.0 | 3.0 | 0.00 | 0.00 | 0.00 | 83 | 1018.2 |
| 20260510045925 | 49 | 349 | 1.0 | 3.0 | 0.00 | 0.00 | 0.00 | 83 | 1018.2 |
| 20260510044925 | 49 | 0 | 1.0 | 2.0 | 0.00 | 0.00 | 0.00 | 83 | 1018.2 |
| 20260510043925 | 49 | 5 | 1.0 | 2.0 | 0.00 | 0.00 | 0.00 | 83 | 1018.2 |
| 20260510042925 | 49 | 0 | 0.0 | 2.0 | 0.00 | 0.00 | 0.00 | 83 | 1018.1 |
| 20260510040926 | 49 | 340 | 1.0 | 6.0 | 0.00 | 0.00 | 0.00 | 83 | 1018.1 |
| 20260510035401 | 49 | 333 | 1.0 | 5.0 | 0.00 | 0.00 | 0.00 | 82 | 1018.3 |
| 20260510033920 | 49 | 11 | 0.0 | 2.0 | 0.00 | 0.00 | 0.00 | 82 | 1018.4 |
| 20260510031920 | 49 | 329 | 0.0 | 2.0 | 0.00 | 0.00 | 0.00 | 82 | 1018.5 |
| 20260510030914 | 49 | 325 | 1.0 | 2.0 | 0.00 | 0.00 | 0.00 | 82 | 1018.6 |
| 20260510025913 | 50 | 5 | 1.0 | 2.0 | 0.00 | 0.00 | 0.00 | 82 | 1018.5 |
| 20260510024910 | 50 | 11 | 1.0 | 3.0 | 0.00 | 0.00 | 0.00 | 82 | 1018.6 |
| 20260510023909 | 50 | 344 | 1.0 | 3.0 | 0.00 | 0.00 | 0.00 | 82 | 1018.6 |
| 20260510022906 | 50 | 26 | 0.0 | 3.0 | 0.00 | 0.00 | 0.00 | 82 | 1018.6 |
| 20260510022343 | 50 | 336 | 0.0 | 3.0 | 0.00 | 0.00 | 0.00 | 81 | 1018.5 |
| 20260510020903 | 50 | 338 | 0.0 | 2.0 | 0.00 | 0.00 | 0.00 | 80 | 1018.6 |
| 20260510015901 | 50 | 344 | 1.0 | 4.0 | 0.00 | 0.00 | 0.00 | 80 | 1018.5 |
| 20260510014900 | 51 | 19 | 1.0 | 5.0 | 0.00 | 0.00 | 0.00 | 79 | 1018.5 |
| 20260510013903 | 51 | 5 | 1.0 | 3.0 | 0.00 | 0.00 | 0.00 | 78 | 1018.6 |
| 20260510012858 | 51 | 355 | 1.0 | 3.0 | 0.00 | 0.00 | 0.00 | 76 | 1018.5 |
| 20260510011904 | 51 | 337 | 1.0 | 3.0 | 0.00 | 0.00 | 0.00 | 73 | 1018.6 |
| 20260510010902 | 51 | 5 | 1.0 | 3.0 | 0.00 | 0.00 | 0.00 | 71 | 1018.8 |
| 20260510005900 | 52 | 355 | 1.0 | 3.0 | 0.00 | 0.00 | 0.00 | 67 | 1018.7 |
| 20260510004858 | 52 | 344 | 1.0 | 3.0 | 0.00 | 0.00 | 0.00 | 65 | 1018.5 |
| 20260510003857 | 52 | 25 | 1.0 | 6.0 | 0.00 | 0.00 | 0.00 | 63 | 1018.6 |
| 20260510002856 | 53 | 13 | 1.0 | 6.0 | 0.00 | 0.00 | 0.00 | 63 | 1018.5 |
| 20260510001858 | 53 | 350 | 0.0 | 2.0 | 0.00 | 0.00 | 0.00 | 64 | 1018.6 |
| 20260509235852 | 53 | 349 | 0.0 | 2.0 | 0.00 | 0.00 | 0.00 | 62 | 1018.5 |
| 20260509234851 | 53 | 349 | 0.0 | 2.0 | 0.00 | 0.00 | 0.00 | 62 | 1018.5 |
| 20260509233850 | 54 | 348 | 0.0 | 2.0 | 0.00 | 0.00 | 0.00 | 62 | 1018.5 |
| 20260509232851 | 54 | 355 | 0.0 | 0.0 | 0.00 | 0.00 | 0.00 | 62 | 1018.4 |
| 20260509231853 | 54 | 355 | 0.0 | 0.0 | 0.00 | 0.00 | 0.00 | 62 | 1018.4 |
| 20260509230850 | 54 | 355 | 0.0 | 0.0 | 0.00 | 0.00 | 0.00 | 61 | 1018.4 |
| 20260509225850 | 54 | 355 | 0.0 | 0.0 | 0.00 | 0.00 | 0.00 | 61 | 1018.3 |
| 20260509224850 | 54 | 355 | 0.0 | 0.0 | 0.00 | 0.00 | 0.00 | 61 | 1018.3 |
| 20260509223847 | 54 | 355 | 0.0 | 0.0 | 0.00 | 0.00 | 0.00 | 62 | 1018.4 |
| 20260509222843 | 55 | 355 | 0.0 | 0.0 | 0.00 | 0.00 | 0.00 | 60 | 1018.3 |
| 20260509221846 | 55 | 355 | 0.0 | 0.0 | 0.00 | 0.00 | 0.00 | 58 | 1018.2 |
| 20260509221331 | 55 | 355 | 0.0 | 0.0 | 0.00 | 0.00 | 0.00 | 60 | 1018.1 |
| 20260509215847 | 55 | 355 | 0.0 | 0.0 | 0.00 | 0.00 | 0.00 | 61 | 1018.2 |
| 20260509214841 | 56 | 355 | 0.0 | 0.0 | 0.00 | 0.00 | 0.00 | 57 | 1018.1 |
| 20260509213837 | 56 | 355 | 0.0 | 0.0 | 0.00 | 0.00 | 0.00 | 58 | 1018.2 |
| 20260509212837 | 56 | 355 | 0.0 | 0.0 | 0.00 | 0.00 | 0.00 | 57 | 1018.4 |
| 20260509211837 | 57 | 355 | 0.0 | 0.0 | 0.00 | 0.00 | 0.00 | 57 | 1018.2 |
| 20260509210838 | 57 | 336 | 0.0 | 3.0 | 0.00 | 0.00 | 0.00 | 56 | 1018.1 |
| 20260509210324 | 57 | 349 | 1.0 | 3.0 | 0.00 | 0.00 | 0.00 | 54 | 1017.8 |
| 20260509205316 | 58 | 42 | 0.0 | 1.0 | 0.00 | 0.00 | 0.00 | 56 | 1017.8 |
| 20260509204312 | 58 | 42 | 0.0 | 1.0 | 0.00 | 0.00 | 0.00 | 57 | 1017.7 |
| 20260509202832 | 59 | 65 | 0.0 | 2.0 | 0.00 | 0.00 | 0.00 | 56 | 1017.6 |
| 20260509201832 | 59 | 57 | 0.0 | 2.0 | 0.00 | 0.00 | 0.00 | 56 | 1017.6 |
| 20260509200831 | 60 | 104 | 0.0 | 3.0 | 0.00 | 0.00 | 0.00 | 55 | 1017.4 |
| 20260509200309 | 60 | 85 | 0.0 | 3.0 | 0.00 | 0.00 | 0.00 | 55 | 1017.4 |
| 20260509194830 | 61 | 317 | 0.0 | 4.0 | 0.00 | 0.00 | 0.00 | 51 | 1017.5 |
| 20260509194311 | 61 | 335 | 0.0 | 5.0 | 0.00 | 0.00 | 0.00 | 51 | 1017.2 |
| 20260509192830 | 62 | 88 | 1.0 | 6.0 | 0.00 | 0.00 | 0.00 | 51 | 1017.2 |
| 20260509191833 | 62 | 288 | 0.0 | 4.0 | 0.00 | 0.00 | 0.00 | 48 | 1017.2 |
| 20260509190830 | 63 | 89 | 1.0 | 5.0 | 0.00 | 0.00 | 0.00 | 49 | 1017.1 |
| 20260509185830 | 63 | 90 | 1.0 | 4.0 | 0.00 | 0.00 | 0.00 | 49 | 1017.0 |
| 20260509184827 | 64 | 53 | 1.0 | 5.0 | 0.00 | 0.00 | 0.00 | 48 | 1016.9 |
| 20260509183826 | 65 | 159 | 0.0 | 6.0 | 0.00 | 0.00 | 0.00 | 45 | 1017.0 |
| 20260509182826 | 65 | 136 | 1.0 | 6.0 | 0.00 | 0.00 | 0.00 | 47 | 1016.7 |
| 20260509181824 | 65 | 104 | 1.0 | 5.0 | 0.00 | 0.00 | 0.00 | 44 | 1016.5 |
| 20260509181300 | 65 | 310 | 0.0 | 3.0 | 0.00 | 0.00 | 0.00 | 46 | 1016.6 |
| 20260509175824 | 66 | 355 | 1.0 | 10.0 | 0.00 | 0.00 | 0.00 | 44 | 1016.6 |
| 20260509174824 | 67 | 161 | 2.0 | 10.0 | 0.00 | 0.00 | 0.00 | 43 | 1016.5 |
| 20260509173824 | 67 | 160 | 1.0 | 6.0 | 0.00 | 0.00 | 0.00 | 44 | 1016.4 |
| 20260509173307 | 67 | 173 | 0.0 | 5.0 | 0.00 | 0.00 | 0.00 | 44 | 1016.3 |
| 20260509171825 | 66 | 320 | 0.0 | 2.0 | 0.00 | 0.00 | 0.00 | 46 | 1016.3 |
| 20260509170825 | 66 | 340 | 1.0 | 2.0 | 0.00 | 0.00 | 0.00 | 44 | 1016.3 |
| 20260509165822 | 67 | 317 | 1.0 | 3.0 | 0.00 | 0.00 | 0.00 | 44 | 1016.5 |
| 20260509164822 | 67 | 301 | 1.0 | 3.0 | 0.00 | 0.00 | 0.00 | 43 | 1016.4 |
| 20260509163822 | 67 | 31 | 0.0 | 4.0 | 0.00 | 0.00 | 0.00 | 44 | 1016.5 |
| 20260509162822 | 67 | 293 | 1.0 | 8.0 | 0.00 | 0.00 | 0.00 | 43 | 1016.4 |
| 20260509162306 | 67 | 5 | 1.0 | 8.0 | 0.00 | 0.00 | 0.00 | 42 | 1016.3 |
| 20260509160821 | 67 | 317 | 1.0 | 3.0 | 0.00 | 0.00 | 0.00 | 44 | 1016.4 |
| 20260509155820 | 67 | 333 | 0.0 | 2.0 | 0.00 | 0.00 | 0.00 | 45 | 1016.4 |
| 20260509154820 | 67 | 0 | 0.0 | 4.0 | 0.00 | 0.00 | 0.00 | 45 | 1016.6 |
| 20260509153818 | 67 | 343 | 1.0 | 5.0 | 0.00 | 0.00 | 0.00 | 46 | 1016.8 |
| 20260509152818 | 67 | 325 | 0.0 | 2.0 | 0.00 | 0.00 | 0.00 | 47 | 1016.9 |